Weather History for KBFW - October, 2012

Change the Weather History Date:

Sunday, October 7, 2012

  Actual Average Record
Temperature  
Mean Temperature 38 °F -  
Max Temperature 51 °F 54 °F 77 °F (2003)
Min Temperature 26 °F 32 °F 19 °F (2001)
Degree Days  
Heating Degree Days 26    
Moisture  
Dew Point 16 °F    
Average Humidity 44    
Maximum Humidity 74    
Minimum Humidity 19    
Precipitation  
Precipitation 0.00 in - - ()
Sea Level Pressure  
Sea Level Pressure 29.94 in    
Wind  
Wind Speed 4 mph (WSW)    
Max Wind Speed 13 mph    
Max Gust Speed 24 mph    
Visibility 10 miles    
Events      
Averages and records for this station are not official NWS values.
T = Trace of Precipitation, MM = Missing Value Source: NWS Daily Summary

Daily Weather History Graph

Daily Weather History Graph

Search for Another Location

Airport or City:

Trip Planner

Search our weather history database for the weather conditions in past years. The results will help you decide how hot, cold, wet, or windy it might be!

Date:

Astronomy

Oct. 07, 2012 Rise Set
Actual Time 7:13 AM CDT 6:32 PM CDT
Civil Twilight 6:42 AM CDT 7:02 PM CDT
Nautical Twilight 6:07 AM CDT 7:38 PM CDT
Astronomical Twilight 5:31 AM CDT 8:13 PM CDT
Moon 11:28 PM CDT (10/7) 2:07 PM CDT (10/7)
Length of Visible Light 12h 19m
Length of Day
11h 18m
Waning Gibbous, 56% of the Moon is Illuminated
Oct 7
Waning Gibbous
Oct 8
Last Quarter
Oct 15
New
Oct 21
First Quarter
Oct 29
Full

Hourly Weather History & Observations

Time (CDT) Temp. Windchill Dew Point Humidity Pressure Visibility Wind Dir Wind Speed Gust Speed Precip Events Conditions
12:13 AM 28.4 °F - 17.6 °F 64% 30.11 in 10.0 mi Calm Calm - N/A   Clear
12:33 AM 26.6 °F - 17.6 °F 69% 30.11 in 10.0 mi Calm Calm - N/A   Clear
12:53 AM 26.6 °F - 17.6 °F 69% 30.10 in 10.0 mi Calm Calm - N/A   Clear
1:13 AM 26.6 °F - 19.4 °F 74% 30.10 in 10.0 mi Calm Calm - N/A   Clear
1:33 AM 26.6 °F - 19.4 °F 74% 30.10 in 10.0 mi Calm Calm - N/A   Clear
2:13 AM 26.6 °F 22.6 °F 19.4 °F 74% 30.09 in 10.0 mi WNW 3.5 mph - N/A   Clear
2:33 AM 28.4 °F 23.3 °F 19.4 °F 69% 30.08 in 10.0 mi WNW 4.6 mph - N/A   Clear
2:53 AM 28.4 °F 23.3 °F 19.4 °F 69% 30.07 in 10.0 mi WNW 4.6 mph - N/A   Clear
3:13 AM 28.4 °F - 19.4 °F 69% 30.07 in 10.0 mi Calm Calm - N/A   Clear
3:53 AM 28.4 °F 24.6 °F 19.4 °F 69% 30.06 in 10.0 mi West 3.5 mph - N/A   Clear
4:13 AM 30.2 °F 25.4 °F 19.4 °F 64% 30.05 in 10.0 mi West 4.6 mph - N/A   Clear
4:33 AM 30.2 °F 25.4 °F 19.4 °F 64% 30.04 in 10.0 mi West 4.6 mph - N/A   Clear
4:53 AM 30.2 °F 25.4 °F 19.4 °F 64% 30.04 in 10.0 mi West 4.6 mph - N/A   Clear
5:13 AM 30.2 °F 25.4 °F 19.4 °F 64% 30.04 in 10.0 mi West 4.6 mph - N/A   Clear
5:33 AM 30.2 °F 25.4 °F 19.4 °F 64% 30.03 in 10.0 mi West 4.6 mph - N/A   Clear
5:53 AM 30.2 °F 25.4 °F 19.4 °F 64% 30.03 in 10.0 mi West 4.6 mph - N/A   Clear
6:13 AM 30.2 °F 24.3 °F 19.4 °F 64% 30.03 in 10.0 mi West 5.8 mph - N/A   Clear
6:33 AM 30.2 °F 25.4 °F 19.4 °F 64% 30.02 in 10.0 mi West 4.6 mph - N/A   Clear
6:53 AM 30.2 °F 25.4 °F 19.4 °F 64% 30.02 in 10.0 mi West 4.6 mph - N/A   Clear
7:13 AM 30.2 °F 25.4 °F 19.4 °F 64% 30.02 in 10.0 mi West 4.6 mph - N/A   Clear
7:34 AM 30.2 °F 25.4 °F 19.4 °F 64% 30.01 in 10.0 mi West 4.6 mph - N/A   Clear
7:53 AM 30.2 °F 25.4 °F 19.4 °F 64% 30.01 in 10.0 mi West 4.6 mph - N/A   Clear
8:13 AM 32.0 °F - 21.2 °F 64% 30.00 in 10.0 mi Calm Calm - N/A   Clear
8:33 AM 35.6 °F 31.7 °F 21.2 °F 56% 30.00 in 10.0 mi West 4.6 mph - N/A   Clear
8:53 AM 35.6 °F 32.8 °F 21.2 °F 56% 29.99 in 10.0 mi West 3.5 mph - N/A   Clear
9:13 AM 37.4 °F 34.9 °F 19.4 °F 48% 29.99 in 10.0 mi West 3.5 mph - N/A   Clear
9:33 AM 39.2 °F 35.9 °F 21.2 °F 49% 29.98 in 10.0 mi West 4.6 mph - N/A   Clear
9:53 AM 41.0 °F 36.4 °F 19.4 °F 42% 29.98 in 10.0 mi West 6.9 mph - N/A   Clear
10:13 AM 44.6 °F 40.2 °F 17.6 °F 34% 29.97 in 10.0 mi WSW 8.1 mph 16.1 mph N/A   Clear
10:33 AM 46.4 °F 41.1 °F 15.8 °F 29% 29.97 in 10.0 mi WSW 11.5 mph 18.4 mph N/A   Clear
10:53 AM 46.4 °F 42.4 °F 15.8 °F 29% 29.96 in 10.0 mi WSW 8.1 mph 16.1 mph N/A   Clear
11:13 AM 46.4 °F 42.4 °F 15.8 °F 29% 29.96 in 10.0 mi West 8.1 mph 19.6 mph N/A   Clear
11:33 AM 46.4 °F 42.4 °F 12.2 °F 25% 29.95 in 10.0 mi West 8.1 mph 18.4 mph N/A   Clear
11:53 AM 48.2 °F - 14.0 °F 25% 29.94 in 10.0 mi WSW 10.4 mph 18.4 mph N/A   Clear
12:13 PM 48.2 °F - 12.2 °F 24% 29.94 in 10.0 mi WSW 11.5 mph 21.9 mph N/A   Clear
12:33 PM 50.0 °F - 12.2 °F 22% 29.94 in 10.0 mi WSW 11.5 mph 20.7 mph N/A   Clear
12:53 PM 50.0 °F - 10.4 °F 20% 29.93 in 10.0 mi WSW 12.7 mph 19.6 mph N/A   Scattered Clouds
1:33 PM 51.8 °F - 10.4 °F 19% 29.91 in 10.0 mi WSW 10.4 mph 20.7 mph N/A   Overcast
1:53 PM 50.0 °F - 10.4 °F 20% 29.90 in 10.0 mi SW 11.5 mph 24.2 mph N/A   Mostly Cloudy
2:13 PM 51.8 °F - 12.2 °F 21% 29.89 in 10.0 mi WSW 10.4 mph 17.3 mph N/A   Scattered Clouds
2:33 PM 50.0 °F - 10.4 °F 20% 29.88 in 10.0 mi WSW 8.1 mph 21.9 mph N/A   Clear
2:53 PM 50.0 °F - 12.2 °F 22% 29.88 in 10.0 mi WSW 10.4 mph 19.6 mph N/A   Clear
3:13 PM 50.0 °F - 10.4 °F 20% 29.88 in 10.0 mi West 10.4 mph 18.4 mph N/A   Scattered Clouds
3:33 PM 50.0 °F - 10.4 °F 20% 29.87 in 10.0 mi WSW 4.6 mph 18.4 mph N/A   Scattered Clouds
3:53 PM 50.0 °F - 12.2 °F 22% 29.86 in 10.0 mi WSW 8.1 mph 17.3 mph N/A   Scattered Clouds
4:13 PM 50.0 °F - 10.4 °F 20% 29.86 in 10.0 mi West 6.9 mph 21.9 mph N/A   Scattered Clouds
4:33 PM 50.0 °F - 10.4 °F 20% 29.85 in 10.0 mi WSW 6.9 mph 17.3 mph N/A   Scattered Clouds
4:54 PM 50.0 °F - 8.6 °F 19% 29.85 in 10.0 mi SW 12.7 mph 20.7 mph N/A   Scattered Clouds
5:14 PM 48.2 °F - 8.6 °F 20% 29.85 in 10.0 mi SW 5.8 mph - N/A   Clear
5:33 PM 48.2 °F - 6.8 °F 19% 29.85 in 10.0 mi SW 6.9 mph 16.1 mph N/A   Clear
5:53 PM 46.4 °F 42.9 °F 10.4 °F 23% 29.85 in 10.0 mi WSW 6.9 mph - N/A   Clear
6:13 PM 44.6 °F 40.2 °F 8.6 °F 23% 29.86 in 10.0 mi WSW 8.1 mph - N/A   Clear
6:33 PM 44.6 °F 40.7 °F 8.6 °F 23% 29.86 in 10.0 mi SW 6.9 mph - N/A   Clear
6:53 PM 42.8 °F 38.0 °F 10.4 °F 27% 29.86 in 10.0 mi SW 8.1 mph - N/A   Clear
7:13 PM 39.2 °F 34.2 °F 12.2 °F 33% 29.86 in 10.0 mi SW 6.9 mph - N/A   Clear
7:33 PM 37.4 °F 33.8 °F 12.2 °F 36% 29.86 in 10.0 mi SW 4.6 mph - N/A   Clear
7:53 PM 37.4 °F 33.8 °F 12.2 °F 36% 29.86 in 10.0 mi SW 4.6 mph - N/A   Clear
8:13 PM 37.4 °F 33.8 °F 14.0 °F 38% 29.86 in 10.0 mi SW 4.6 mph - N/A   Clear
8:33 PM 37.4 °F 34.9 °F 14.0 °F 38% 29.85 in 10.0 mi SW 3.5 mph - N/A   Clear
8:53 PM 35.6 °F 32.8 °F 14.0 °F 41% 29.85 in 10.0 mi WSW 3.5 mph - N/A   Clear
9:13 PM 33.8 °F - 15.8 °F 48% 29.85 in 10.0 mi Calm Calm - N/A   Clear
9:33 PM 35.6 °F - 15.8 °F 44% 29.85 in 10.0 mi Calm Calm - N/A   Scattered Clouds
9:53 PM 35.6 °F - 17.6 °F 48% 29.84 in 10.0 mi Calm Calm - N/A   Overcast
10:13 PM 35.6 °F 32.8 °F 17.6 °F 48% 29.84 in 10.0 mi SW 3.5 mph - N/A   Overcast
10:33 PM 37.4 °F 32.1 °F 19.4 °F 48% 29.83 in 10.0 mi SW 6.9 mph - N/A   Overcast
10:53 PM 37.4 °F 32.1 °F 19.4 °F 48% 29.83 in 10.0 mi SW 6.9 mph - N/A   Overcast
11:13 PM 39.2 °F 34.2 °F 17.6 °F 42% 29.82 in 10.0 mi SW 6.9 mph - N/A   Overcast
11:33 PM 39.2 °F 33.6 °F 17.6 °F 42% 29.81 in 10.0 mi SW 8.1 mph - N/A   Overcast
11:53 PM 39.2 °F 33.6 °F 15.8 °F 39% 29.81 in 10.0 mi SW 8.1 mph - N/A   Overcast